SCP
0 0 0 0 0 0 0 0 0 0 -0 -0 -0 0 0 0 0 -0 -0 -0 -0 -0 -0 0 -0 -0 -0 -0 -0 -0 0 0 0 0 0 0 0 0
0 0 0 0 0 0 0 0 0 0 0 0 0 0 0 0 0 -0 -0 -0 -0 -0 -0 0 0 0 0 0 0 0 0 0 0 0 0 0 0 0
0 0 0 0 0 0 0 0 0 0 0 0 0 0 0 0 0 -0 0 0 0 0 0 0 0 0 0 0 0 0 0 0 0 0 0 0 0 0
0 0 0 0 0 0 0 0 0 0 0 0 0 0 0 0 0 0 0 0 0 0 0 0 0 0 0 0 0 0 0 0 0 0 0 0 0 0
0 0 0 0 0 0 0 0 0 0 0 0 0 0 0 0 0 0 0 0 0 0 0 0 0 0 0 0 0 0 0 0 0 0 0 0 0 0
0 0 0 0 0 0 0 0 0 0 0 0 0 0 0 0 0 0 0 0 0 0 0 0 0 0 0 0 0 0 0 0 0 0 0 0 0 0
0 0 0 0 0 0 0 0 0 0 0 0 0 0 0 0 0 0 0 0 0 0 0 0 0 0 0 0 0 0 0 0 0 0 0 0 0 0
0 0 0 0 0 0 0 0 0 0 0 0 0 0 0 0 0 0 0 0 0 0 0 0 0 0 0 0 0 0 0 0 0 0 0 0 0 0
0 0 0 0 0 0 0 0 0 0 0 0 0 0 0 0 0 0 0 0 0 0 0 0 0 0 0 0 0 0 0 0 0 0 0 0 0 0
0 0 0 0 0 0 0 0 0 0 0 0 0 0 0 0 0 0 0 0 0 0 0 0 0 0 0 0 0 0 0 0 0 0 0 0 0 0
0 0 0 0 0 0 0 0 0 0 0 0 0 0 0 0 0 0 0 0 0 0 0 0 0 0 0 0 0 0 0 0 0 0 0 0 0 0
0 0 0 0 0 0 0 0 0 0 0 0 0 0 0 0 0 0 0 0 0 0 0 0 0 0 0 0 0 0 0 0 0 0 0 0 0 0
0 0 0 0 0 0 0 0 0 0 0 0 0 0 0 0 0 0 0 0 0 0 0 0 0 0 0 0 0 0 0 0 0 0 0 0 0 0
0 0 0 0 0 0 0 0 0 0 0 0 0 0 0 0 0 0 0 0 0 0 0 0 0 0 0 0 0 0 0 0 0 -0 -0 0 0 0
0 0 0 0 0 0 0 0 0 0 0 0 0 0 0 0 0 0 0 0 0 0 0 0 0 0 0 0 0 0 0 0 0 0 -0 0 0 0
0 0 0 0 0 0 0 0 0 0 0 0 0 0 0 0 0 0 0 0 0 0 0 0 0 0 0 0 0 0 0 0 0 0 0 0 -0 0
0 0 0 0 0 0 0 0 0 0 0 0 0 0 0 0 0 0 0 0 0 0 0 0 0 0 0 0 -0 0 0 0 0 0 0 -0 -0 -0
0 0 0 0 0 0 0 0 0 0 0 0 0 0 0 0 0 0 0 0 0 0 0 0 0 0 0 0 -0 -0 0 0 0 0 0 -0 -0 -0
0 0 0 0 0 0 0 0 0 0 0 0 0 0 0 0 0 0 0 0 0 0 0 0 0 0 0 -0 -0 0 0 0 0 0 0 0 -0 -0
0 0 0 0 0 0 0 0 0 0 0 0 0 0 0 0 0 0 0 0 0 0 0 0 0 0 0 -0 -0 -0 0 0 0 0 0 0 0 0
0 0 0 0 0 0 0 0 0 0 0 0 0 0 0 0 0 0 0 0 0 0 0 0 0 0 0 -0 -0 -0 -0 0 0 0 0 0 0 0
0 0 0 0 0 0 0 0 0 0 0 0 0 0 0 0 0 0 0 0 0 0 0 0 0 0 -0 -0 -0 0 -0 -0 0 0 0 0 0 0
0 0 0 0 0 0 0 0 0 0 0 0 0 0 0 0 0 0 0 0 0 0 0 0 0 -0 -0 -0 0 0 0 0 0 0 0 0 0 0
Wind_Speed_500mb
44 44 44 44 43 43 43 46 50 57 79 57 71 75 99 103 102 105 106 108 108 110 112 113 116 117 112 107 92 89 87 87 91 105 105 99 98 103
46 46 46 46 46 44 45 48 51 60 84 89 101 107 106 110 110 112 115 115 115 115 114 113 111 109 109 100 92 90 90 91 92 93 100 103 99 96
48 48 47 47 45 45 49 52 56 62 87 126 109 112 114 116 114 113 117 119 120 116 110 102 99 97 89 92 93 92 93 94 95 95 93 97 99 98
50 48 46 47 46 47 52 56 61 65 77 110 121 117 120 116 115 117 118 118 114 114 110 92 86 87 93 92 91 90 91 92 93 95 98 100 98 105
50 49 46 45 48 49 53 60 64 69 76 90 122 115 117 114 116 116 115 111 112 104 91 90 88 86 88 87 87 87 87 88 89 92 99 101 100 110
51 48 45 47 48 50 54 59 64 69 73 84 103 116 112 107 96 100 112 103 106 99 101 97 95 97 90 89 89 92 94 94 91 91 92 105 111 106
49 45 46 45 49 49 54 57 61 65 68 80 92 102 104 101 94 99 108 115 114 93 103 103 103 104 105 86 84 74 71 81 84 88 91 110 110 122
46 43 44 50 49 48 50 51 49 54 64 76 86 92 115 101 103 108 110 110 127 101 87 103 95 109 105 96 88 88 86 87 87 91 91 86 111 113
44 44 52 48 46 50 52 54 48 52 57 66 85 94 110 104 107 115 113 112 128 124 103 119 106 110 108 112 92 89 96 91 86 87 81 70 94 113
43 52 47 45 43 50 51 53 58 63 67 69 81 89 95 101 98 106 116 114 121 123 89 105 109 108 106 110 96 89 87 87 86 82 76 69 80 103
51 48 44 39 43 43 43 52 61 71 73 68 73 77 77 85 94 96 108 100 116 124 89 90 111 102 98 108 99 90 87 85 81 79 67 70 77 80
49 43 34 37 40 36 41 53 68 68 70 73 80 86 87 84 77 66 76 90 95 112 77 76 92 89 98 84 73 77 90 66 54 63 60 63 76 83
47 36 29 31 34 33 42 50 57 56 65 72 78 81 82 79 77 69 69 77 94 110 98 80 97 94 90 106 95 92 92 100 88 72 62 70 63 61
42 29 27 26 23 32 40 45 51 53 60 68 74 80 82 83 82 81 76 84 93 107 108 88 105 87 94 103 100 93 90 88 88 93 97 98 78 82
36 30 25 17 16 26 32 39 45 52 58 67 74 81 81 85 88 91 86 93 98 97 85 80 91 94 103 111 104 93 89 90 88 87 88 99 99 96
32 25 20 14 18 23 27 33 42 50 57 66 75 81 85 90 92 81 96 97 96 100 91 92 88 89 102 111 105 104 98 96 84 70 62 95 98 110
30 24 16 16 21 21 26 35 43 51 59 65 73 80 86 91 90 84 93 100 96 100 97 85 77 81 88 100 97 103 102 99 96 96 90 95 94 107
25 18 15 20 22 24 30 38 42 50 57 66 73 79 84 91 90 93 97 91 96 96 93 86 83 81 82 88 90 102 100 98 92 88 81 86 100 105
27 20 15 18 22 24 30 38 48 52 59 65 74 82 85 89 83 100 98 93 96 93 91 87 81 73 74 76 85 62 93 93 87 84 87 93 98 104
26 19 16 15 22 27 31 38 47 55 62 68 77 83 84 83 94 99 98 97 98 98 97 87 77 75 74 81 82 93 53 85 90 87 81 87 87 85
26 23 15 16 22 28 32 37 47 55 62 68 79 85 87 85 98 98 102 100 96 95 95 89 82 78 80 80 87 100 103 82 80 89 80 69 66 69
26 22 13 16 22 29 32 38 47 54 63 68 79 87 84 100 100 104 104 104 99 94 97 97 88 75 70 70 81 92 99 97 81 79 80 80 70 39
27 17 13 16 22 28 32 38 45 52 60 66 79 87 90 107 104 104 106 101 99 97 95 98 87 72 71 70 76 85 90 90 72 64 79 72 81 77
Wind_Direction_500mb
268 271 276 280 283 289 294 298 301 303 306 304 310 309 308 309 312 313 309 305 303 301 301 301 300 297 293 291 285 281 277 273 270 262 262 259 255 242
261 265 272 276 281 288 292 295 295 296 294 297 299 303 305 308 312 310 307 305 303 304 303 301 297 293 290 287 283 279 275 272 270 266 261 258 252 251
260 262 269 275 283 290 292 293 294 295 293 299 301 304 305 308 307 306 305 305 306 306 305 302 294 290 289 284 280 275 273 271 267 264 260 258 253 246
257 262 269 276 283 287 291 293 294 294 294 297 300 303 303 306 308 308 308 307 305 307 307 301 293 290 288 283 278 275 273 270 266 263 260 254 251 245
255 262 270 276 282 286 290 293 294 294 295 295 297 301 303 308 312 309 306 304 304 303 296 293 291 289 286 281 276 273 272 268 267 264 258 255 246 246
252 260 269 276 283 287 291 293 293 294 295 296 297 302 305 306 301 301 303 301 296 295 294 291 290 289 286 280 275 272 269 268 264 262 260 253 245 240
251 260 269 282 282 289 292 294 294 297 301 299 293 295 295 300 299 298 296 298 294 295 296 292 292 293 291 285 280 274 267 266 267 263 258 256 250 240
252 261 276 278 286 288 292 289 283 287 289 290 288 287 293 295 297 296 293 294 294 295 291 289 287 287 287 284 276 272 270 271 270 266 268 263 248 243
252 268 268 276 286 292 289 289 289 287 282 286 286 286 292 295 297 295 291 289 287 290 288 287 285 281 282 286 279 272 271 273 269 270 268 262 250 241
258 262 268 277 287 288 295 298 301 301 301 297 292 292 291 294 293 292 293 288 285 283 291 281 287 280 282 285 283 277 275 272 269 270 264 255 249 242
257 262 269 283 285 294 297 300 300 299 301 297 291 291 291 289 290 287 283 287 285 285 285 275 283 281 281 283 282 278 277 275 269 268 258 255 248 242
252 259 273 287 296 295 301 296 292 303 306 307 305 302 304 306 310 291 288 284 285 288 284 279 280 279 284 283 276 277 283 277 271 268 255 257 250 240
242 251 268 278 288 296 295 295 300 305 302 304 306 308 315 319 321 311 291 284 283 283 284 284 276 276 270 274 275 272 272 279 276 253 251 256 251 238
241 247 253 268 294 302 303 308 311 311 312 311 316 320 322 323 323 318 303 292 288 284 291 282 275 275 273 273 273 277 272 271 275 276 266 263 259 252
231 234 248 265 288 303 309 314 319 321 323 324 324 325 327 326 325 325 312 301 295 293 291 282 274 277 270 268 268 269 271 269 270 277 263 257 258 254
220 228 235 261 290 304 311 323 326 329 331 330 328 329 329 332 326 315 308 307 301 296 288 284 281 275 272 265 265 267 264 263 265 269 273 257 259 260
214 218 238 262 279 304 322 327 329 333 333 333 332 332 334 330 320 311 310 306 300 299 298 296 289 279 276 267 267 260 260 259 258 261 259 260 256 258
212 219 246 276 297 319 331 330 336 335 337 336 336 336 334 324 317 313 312 306 303 300 298 298 296 292 287 277 255 261 256 256 258 259 258 249 255 256
219 222 243 278 306 325 331 338 336 336 337 338 340 340 339 320 316 315 314 310 306 302 298 297 292 285 283 278 270 262 253 256 254 251 248 248 254 263
224 236 253 288 309 321 330 338 336 338 340 340 341 342 335 327 319 318 316 313 309 305 301 297 289 278 268 267 275 266 252 258 256 255 249 259 262 271
223 239 256 292 307 316 328 336 336 340 341 339 343 342 338 327 324 322 319 315 311 308 303 299 295 289 280 278 273 270 260 258 260 258 255 250 259 275
222 238 264 289 303 312 324 332 335 342 342 342 342 344 337 334 332 326 322 317 314 311 306 304 303 295 280 266 266 270 269 264 263 266 259 255 253 246
220 233 261 286 303 314 321 330 336 342 343 341 343 343 335 340 341 329 324 320 318 316 314 311 308 299 283 270 266 269 269 266 261 265 264 268 269 257
Wind_Speed_850mb
44 44 44 44 43 43 43 46 50 57 79 57 71 75 99 103 102 105 106 108 108 110 112 113 116 117 112 107 92 89 87 87 91 105 105 99 98 103
46 46 46 46 46 44 45 48 51 60 84 89 101 107 106 110 110 112 115 115 115 115 114 113 111 109 109 100 92 90 90 91 92 93 100 103 99 96
48 48 47 47 45 45 49 52 56 62 87 126 109 112 114 116 114 113 117 119 120 116 110 102 99 97 89 92 93 92 93 94 95 95 93 97 99 98
50 48 46 47 46 47 52 56 61 65 77 110 121 117 120 116 115 117 118 118 114 114 110 92 86 87 93 92 91 90 91 92 93 95 98 100 98 105
50 49 46 45 48 49 53 60 64 69 76 90 122 115 117 114 116 116 115 111 112 104 91 90 88 86 88 87 87 87 87 88 89 92 99 101 100 110
51 48 45 47 48 50 54 59 64 69 73 84 103 116 112 107 96 100 112 103 106 99 101 97 95 97 90 89 89 92 94 94 91 91 92 105 111 106
49 45 46 45 49 49 54 57 61 65 68 80 92 102 104 101 94 99 108 115 114 93 103 103 103 104 105 86 84 74 71 81 84 88 91 110 110 122
46 43 44 50 49 48 50 51 49 54 64 76 86 92 115 101 103 108 110 110 127 101 87 103 95 109 105 96 88 88 86 87 87 91 91 86 111 113
44 44 52 48 46 50 52 54 48 52 57 66 85 94 110 104 107 115 113 112 128 124 103 119 106 110 108 112 92 89 96 91 86 87 81 70 94 113
43 52 47 45 43 50 51 53 58 63 67 69 81 89 95 101 98 106 116 114 121 123 89 105 109 108 106 110 96 89 87 87 86 82 76 69 80 103
51 48 44 39 43 43 43 52 61 71 73 68 73 77 77 85 94 96 108 100 116 124 89 90 111 102 98 108 99 90 87 85 81 79 67 70 77 80
49 43 34 37 40 36 41 53 68 68 70 73 80 86 87 84 77 66 76 90 95 112 77 76 92 89 98 84 73 77 90 66 54 63 60 63 76 83
47 36 29 31 34 33 42 50 57 56 65 72 78 81 82 79 77 69 69 77 94 110 98 80 97 94 90 106 95 92 92 100 88 72 62 70 63 61
42 29 27 26 23 32 40 45 51 53 60 68 74 80 82 83 82 81 76 84 93 107 108 88 105 87 94 103 100 93 90 88 88 93 97 98 78 82
36 30 25 17 16 26 32 39 45 52 58 67 74 81 81 85 88 91 86 93 98 97 85 80 91 94 103 111 104 93 89 90 88 87 88 99 99 96
32 25 20 14 18 23 27 33 42 50 57 66 75 81 85 90 92 81 96 97 96 100 91 92 88 89 102 111 105 104 98 96 84 70 62 95 98 110
30 24 16 16 21 21 26 35 43 51 59 65 73 80 86 91 90 84 93 100 96 100 97 85 77 81 88 100 97 103 102 99 96 96 90 95 94 107
25 18 15 20 22 24 30 38 42 50 57 66 73 79 84 91 90 93 97 91 96 96 93 86 83 81 82 88 90 102 100 98 92 88 81 86 100 105
27 20 15 18 22 24 30 38 48 52 59 65 74 82 85 89 83 100 98 93 96 93 91 87 81 73 74 76 85 62 93 93 87 84 87 93 98 104
26 19 16 15 22 27 31 38 47 55 62 68 77 83 84 83 94 99 98 97 98 98 97 87 77 75 74 81 82 93 53 85 90 87 81 87 87 85
26 23 15 16 22 28 32 37 47 55 62 68 79 85 87 85 98 98 102 100 96 95 95 89 82 78 80 80 87 100 103 82 80 89 80 69 66 69
26 22 13 16 22 29 32 38 47 54 63 68 79 87 84 100 100 104 104 104 99 94 97 97 88 75 70 70 81 92 99 97 81 79 80 80 70 39
27 17 13 16 22 28 32 38 45 52 60 66 79 87 90 107 104 104 106 101 99 97 95 98 87 72 71 70 76 85 90 90 72 64 79 72 81 77
Wind_Direction_850mb
268 271 276 280 283 289 294 298 301 303 306 304 310 309 308 309 312 313 309 305 303 301 301 301 300 297 293 291 285 281 277 273 270 262 262 259 255 242
261 265 272 276 281 288 292 295 295 296 294 297 299 303 305 308 312 310 307 305 303 304 303 301 297 293 290 287 283 279 275 272 270 266 261 258 252 251
260 262 269 275 283 290 292 293 294 295 293 299 301 304 305 308 307 306 305 305 306 306 305 302 294 290 289 284 280 275 273 271 267 264 260 258 253 246
257 262 269 276 283 287 291 293 294 294 294 297 300 303 303 306 308 308 308 307 305 307 307 301 293 290 288 283 278 275 273 270 266 263 260 254 251 245
255 262 270 276 282 286 290 293 294 294 295 295 297 301 303 308 312 309 306 304 304 303 296 293 291 289 286 281 276 273 272 268 267 264 258 255 246 246
252 260 269 276 283 287 291 293 293 294 295 296 297 302 305 306 301 301 303 301 296 295 294 291 290 289 286 280 275 272 269 268 264 262 260 253 245 240
251 260 269 282 282 289 292 294 294 297 301 299 293 295 295 300 299 298 296 298 294 295 296 292 292 293 291 285 280 274 267 266 267 263 258 256 250 240
252 261 276 278 286 288 292 289 283 287 289 290 288 287 293 295 297 296 293 294 294 295 291 289 287 287 287 284 276 272 270 271 270 266 268 263 248 243
252 268 268 276 286 292 289 289 289 287 282 286 286 286 292 295 297 295 291 289 287 290 288 287 285 281 282 286 279 272 271 273 269 270 268 262 250 241
258 262 268 277 287 288 295 298 301 301 301 297 292 292 291 294 293 292 293 288 285 283 291 281 287 280 282 285 283 277 275 272 269 270 264 255 249 242
257 262 269 283 285 294 297 300 300 299 301 297 291 291 291 289 290 287 283 287 285 285 285 275 283 281 281 283 282 278 277 275 269 268 258 255 248 242
252 259 273 287 296 295 301 296 292 303 306 307 305 302 304 306 310 291 288 284 285 288 284 279 280 279 284 283 276 277 283 277 271 268 255 257 250 240
242 251 268 278 288 296 295 295 300 305 302 304 306 308 315 319 321 311 291 284 283 283 284 284 276 276 270 274 275 272 272 279 276 253 251 256 251 238
241 247 253 268 294 302 303 308 311 311 312 311 316 320 322 323 323 318 303 292 288 284 291 282 275 275 273 273 273 277 272 271 275 276 266 263 259 252
231 234 248 265 288 303 309 314 319 321 323 324 324 325 327 326 325 325 312 301 295 293 291 282 274 277 270 268 268 269 271 269 270 277 263 257 258 254
220 228 235 261 290 304 311 323 326 329 331 330 328 329 329 332 326 315 308 307 301 296 288 284 281 275 272 265 265 267 264 263 265 269 273 257 259 260
214 218 238 262 279 304 322 327 329 333 333 333 332 332 334 330 320 311 310 306 300 299 298 296 289 279 276 267 267 260 260 259 258 261 259 260 256 258
212 219 246 276 297 319 331 330 336 335 337 336 336 336 334 324 317 313 312 306 303 300 298 298 296 292 287 277 255 261 256 256 258 259 258 249 255 256
219 222 243 278 306 325 331 338 336 336 337 338 340 340 339 320 316 315 314 310 306 302 298 297 292 285 283 278 270 262 253 256 254 251 248 248 254 263
224 236 253 288 309 321 330 338 336 338 340 340 341 342 335 327 319 318 316 313 309 305 301 297 289 278 268 267 275 266 252 258 256 255 249 259 262 271
223 239 256 292 307 316 328 336 336 340 341 339 343 342 338 327 324 322 319 315 311 308 303 299 295 289 280 278 273 270 260 258 260 258 255 250 259 275
222 238 264 289 303 312 324 332 335 342 342 342 342 344 337 334 332 326 322 317 314 311 306 304 303 295 280 266 266 270 269 264 263 266 259 255 253 246
220 233 261 286 303 314 321 330 336 342 343 341 343 343 335 340 341 329 324 320 318 316 314 311 308 299 283 270 266 269 269 266 261 265 264 268 269 257